Showing default

SOLRAD 7B, 1291

Orbit data source: Space-Track

SOLRAD 7B, 1291 is an American payload satellite in LEO that was launched on Tue, 09 Mar 1965 UTC via a THOR SLV-2 AGENA D launch vehicle from the Air Force Western Test Range (AFWTR). Payload-class satellites include a variety of spacecraft equipped with specific instruments for various scientific and technological missions. These include communications satellites like Starlink; space stations such as the ISS; scientific satellites like the Hubble; Earth observation satellites from companies like Planet Labs, Umbra, and HawkEye 360; GPS; miniature CubeSats for education and research; and military/defense satellites.

Loading next visibility...
Identifier
1291, 1965-016D
Orbit
LEO
Country
Flag of USUS
Related business
Manufacturer
NRL
Mission
Spacecraft
Bus & Motor
NRL 24", Unknown motor
Mass
47 kg wet, 47 kg dry
Launch date (UTC)
1965-03-09 (61 years ago)
Launch vehicle
THOR SLV-2 AGENA D
Launch site
Air Force Western Test Range (AFWTR)
Object type
Payload
Rocket body
Debris
Shape & HBR
SPHERE + ANT, 0.8 m
Radar Cross Section
Medium (>0.1 m² and <1 m²)

Expand to show TLE details & history
Last TLE update: 13 hours ago

TLE from 13 hours ago
0 SOLRAD 7B
1 01291U 65016D   26208.83956701  .00000003  00000-0  41281-4 0  9991
2 01291  70.0792 149.8374 0018658  64.4523 295.8509 13.94979864122371
Epoch: 2026-07-27T20:08Z
TLE epoch observation values (Epoch: 2026-07-27T20:08:58.589Z)
Latitude
-0.00004°
Longitude
-97.92412°
Altitude
907.637 km
Speed
7.401 km/s
True Right ascension
09h 59m 20s
True Declination
0° 00' 00"
Sunlit
Object was in daylight at epoch
Visualization orbit readout
Latitude
Unknown
Longitude
Unknown
Altitude
Unknown
Speed
Unknown
Apparent Right ascension
Unknown
Apparent Declination
Unknown
Sunlit
N/A
Visualization observer readout
Local Sidereal Time
22:37:50
Azimuth
Unknown
Elevation
Unknown
Doppler factor
Unknown
Orbital elements
Apogee altitude
922.864 km
Perigee altitude
895.67 km
Semi-major axis
7,287.404 km
Eccentricity
0.00187
Inclination
70.0792°
RAAN
149.8374°
Arg. of periapsis
64.4523°
True anomaly
295.65829°
Mean anomaly
295.8509°
Eccentric anomaly
295.75462°
Mean motion
3.48886 °/min
Orbital period
103.19 mins
BSTAR
0.000041281
Loading maneuver chart data...
Computing Atmospheric mass density...
Loading historical data...
Loading historical data...
Loading historical data...
Loading historical data...
Loading historical data...
Loading historical data...
Loading historical data...

Documentation

Showing up to 5 results
|